Regional Weather Roundup
Issued by NWS State College, PA

Home | Current Version | Previous Version | Text Only | Print | Product List | Glossary Off
Versions: 1 2 3 4 5 6 7 8 9 10 11 12 13 14 15 16 17 18 19 20 21 22 23 24 25 26 27 28 29 30 31 32 33 34 35 36 37 38 39 40 41 42 43 44 45 46 47 48 49 50

000
ASUS41 KCTP 262210
RWRCTP

REGIONAL WEATHER ROUNDUP
NATIONAL WEATHER SERVICE STATE COLLEGE PA
600 PM EDT TUE JUL 26 2016

Note: "fair" indicates few or no clouds below 12,000 feet with no
significant weather and/or obstructions to visibility.

* = STATION THAT DOES NOT REPORT PRECIPITATION /E.G. RAIN...SNOW...ETC/
    THUNDER OR FOG.

PAZ002>004-007>009-013>016-020>023-029>032-262300-
WESTERN PENNSYLVANIA

CITY           SKY/WX    TMP DP  RH WIND       PRES   REMARKS
ERIE           MOSUNNY   80  61  52 W6        30.01F
MEADVILLE      PTSUNNY   77  57  50 NW6       30.04S
FRANKLIN*      PTSUNNY   81  57  44 W6        30.05S
NEW CASTLE     FAIR      82  61  48 N5        30.01F
BEAVER COUNTY  SUNNY     82  57  42 N5        30.02
BUTLER*        PTSUNNY   81  61  50 N3        30.04S
PITTSBURGH INT PTSUNNY   85  59  41 N8        29.99F
PITTSBURGH     PTSUNNY   84  62  47 VRB6      29.99F
INDIANA*       SUNNY     86  59  39 NW9       30.03F
LATROBE        PTSUNNY   86  63  45 W9        30.00F
WASHINGTON CO* PTSUNNY   84  64  51 NW3       30.01S
$$

PAZ004>006-010>012-017>019-024>028-033>037-041-042-045-046-049>053-262300-
CENTRAL PENNSYLVANIA

CITY           SKY/WX    TMP DP  RH WIND       PRES   REMARKS
BRADFORD       SUNNY     79  55  43 NW10      30.04S
DUBOIS         SUNNY     83  55  38 NW9       30.02S
CLEARFIELD     SUNNY     87  52  29 NW13      30.00S
JOHNSTOWN      MOSUNNY   83  57  41 W12       30.04F
ALTOONA        SUNNY     89  56  32 NW10      30.00S
STATE COLLEGE  MOSUNNY   88  57  35 NW13      29.96S
WILLIAMSPORT   SUNNY     93  52  24 W6        29.88S
SELINSGROVE    MOSUNNY   91  67  44 VRB3      29.90S
FT INDIANTOWN  SUNNY     91  62  37 VRB5      29.90S
CAPITAL CITY   MOSUNNY   94  61  33 W3        29.89S
HARRISBURG     PTSUNNY   89  74  60 SW8       29.88S HX  98
YORK           MOSUNNY   87  71  58 SW3       29.91S
$$

PAZ038>040-043-044-047-048-054-055-060>062-067>071-262300-
EASTERN PENNSYLVANIA

CITY           SKY/WX    TMP DP  RH WIND       PRES   REMARKS
SCRANTON       SUNNY     88  58  36 N12       29.92F
MOUNT POCONO   SUNNY     82  55  39 NW14      29.97F
ALLENTOWN      SUNNY     89  65  44 W9        29.89F
QUAKERTOWN*    CLEAR     88  64  45 CALM      29.91S
READING        MOSUNNY   92  60  34 NW13      29.89S
LANCASTER      MOSUNNY   88  66  48 NW5       29.90S
COATESVILLE    CLEAR     86  70  58 VRB3      29.94R
POTTSTOWN      MOSUNNY   90  65  43 NW6       29.91S
BLUE BELL      SUNNY     86  68  54 NW3       29.88S
DOYLESTOWN     MOSUNNY   88  62  41 NW7       29.89S
WILLOW GROVE   NOT AVBL
NORTH PHILA    SUNNY     90  66  45 W9        29.89F
PHILADELPHIA   PTSUNNY   91  65  41 NW14      29.89S
$$




USA.gov is the U.S. government's official web portal to all federal, state and local government web resources and services.